Main page
Satellite images Climate Cyclones Lightning AirportsFAQ Languages Contact Newsletter About
Weather : Europe Africa North America South America Asia Australia-Oceania Others

, Sanya, Sanya Phoenix International Airport

latitude: , longitude: China, elevation: 18-18N m


METAR: ZJSY 211700Z 32002MPS 290V360 9999 SCT015 SCT020 FEW023TCU 27/25 Q1009 NOSIG